| time (UTC) | temp F | wind direction | speed MPH | gust MPH | rain 1hr in | rain 24hr in | rain mn in | humidity % | barometer mb |
| 20260906020352 | 67 | 269 | 1.0 | 6.0 | 0.00 | 0.00 | 0.00 | 37 | 1032.3 |
| 20260906014825 | 68 | 270 | 0.0 | 1.0 | 0.00 | 0.00 | 0.00 | 35 | 1032.2 |
| 20260906013320 | 70 | 270 | 0.0 | 2.0 | 0.00 | 0.00 | 0.00 | 34 | 1032.1 |
| 20260906011812 | 72 | 270 | 0.0 | 2.0 | 0.00 | 0.00 | 0.00 | 30 | 1032.2 |
| 20260906010326 | 74 | 271 | 3.0 | 9.0 | 0.00 | 0.00 | 0.00 | 27 | 1032.4 |
| 20260906004820 | 75 | 273 | 1.0 | 11.0 | 0.00 | 0.00 | 0.00 | 27 | 1032.3 |
| 20260906003337 | 77 | 185 | 1.0 | 8.0 | 0.00 | 0.00 | 0.00 | 26 | 1032.1 |
| 20260906001828 | 78 | 261 | 4.0 | 8.0 | 0.00 | 0.00 | 0.00 | 25 | 1031.9 |
| 20260906000315 | 78 | 296 | 3.0 | 15.0 | 0.00 | 0.00 | 0.00 | 26 | 1032.0 |
| 20260905234836 | 77 | 255 | 4.0 | 10.0 | 0.00 | 0.00 | 0.00 | 25 | 1032.1 |
| 20260905233323 | 80 | 246 | 4.0 | 12.0 | 0.00 | 0.00 | 0.00 | 23 | 1031.9 |
| 20260905231816 | 80 | 232 | 3.0 | 13.0 | 0.00 | 0.00 | 0.00 | 25 | 1031.8 |
| 20260905230311 | 80 | 222 | 6.0 | 10.0 | 0.00 | 0.00 | 0.00 | 23 | 1031.9 |
| 20260905224826 | 80 | 179 | 3.0 | 11.0 | 0.00 | 0.00 | 0.00 | 25 | 1032.1 |
| 20260905223324 | 80 | 199 | 3.0 | 9.0 | 0.00 | 0.00 | 0.00 | 24 | 1032.1 |
| 20260905221817 | 81 | 228 | 6.0 | 12.0 | 0.00 | 0.00 | 0.00 | 23 | 1032.2 |
| 20260905220332 | 80 | 306 | 4.0 | 9.0 | 0.00 | 0.00 | 0.00 | 27 | 1032.1 |
| 20260905214844 | 80 | 286 | 2.0 | 13.0 | 0.00 | 0.00 | 0.00 | 25 | 1032.5 |
| 20260905213345 | 79 | 258 | 3.0 | 10.0 | 0.00 | 0.00 | 0.00 | 25 | 1032.5 |
| 20260905211838 | 79 | 245 | 4.0 | 13.0 | 0.00 | 0.00 | 0.00 | 26 | 1032.5 |
| 20260905210331 | 79 | 186 | 5.0 | 11.0 | 0.00 | 0.00 | 0.00 | 27 | 1032.6 |
| 20260905204825 | 79 | 250 | 6.0 | 11.0 | 0.00 | 0.00 | 0.00 | 26 | 1032.8 |
| 20260905203313 | 78 | 220 | 4.0 | 12.0 | 0.00 | 0.00 | 0.00 | 27 | 1033.2 |
| 20260905201825 | 77 | 218 | 3.0 | 12.0 | 0.00 | 0.00 | 0.00 | 29 | 1033.5 |
| 20260905200348 | 77 | 202 | 3.0 | 9.0 | 0.00 | 0.00 | 0.00 | 28 | 1033.6 |
| 20260905194831 | 78 | 247 | 4.0 | 12.0 | 0.00 | 0.00 | 0.00 | 27 | 1033.6 |
| 20260905193326 | 78 | 264 | 5.0 | 12.0 | 0.00 | 0.00 | 0.00 | 29 | 1033.6 |
| 20260905191811 | 78 | 257 | 7.0 | 12.0 | 0.00 | 0.00 | 0.00 | 28 | 1033.8 |
| 20260905190354 | 76 | 192 | 5.0 | 12.0 | 0.00 | 0.00 | 0.00 | 29 | 1033.9 |
| 20260905184827 | 75 | 228 | 5.0 | 11.0 | 0.00 | 0.00 | 0.00 | 31 | 1034.1 |
| 20260905183314 | 75 | 177 | 3.0 | 10.0 | 0.00 | 0.00 | 0.00 | 35 | 1034.0 |
| 20260905181827 | 75 | 226 | 6.0 | 11.0 | 0.00 | 0.00 | 0.00 | 34 | 1034.2 |
| 20260905180350 | 74 | 192 | 3.0 | 12.0 | 0.00 | 0.00 | 0.00 | 31 | 1034.3 |
| 20260905174816 | 74 | 190 | 5.0 | 10.0 | 0.00 | 0.00 | 0.00 | 36 | 1034.4 |
| 20260905173338 | 73 | 202 | 4.0 | 8.0 | 0.00 | 0.00 | 0.00 | 37 | 1034.4 |
| 20260905171850 | 71 | 202 | 3.0 | 10.0 | 0.00 | 0.00 | 0.00 | 39 | 1034.2 |
| 20260905170323 | 71 | 198 | 4.0 | 9.0 | 0.00 | 0.00 | 0.00 | 41 | 1034.3 |
| 20260905164816 | 70 | 204 | 3.0 | 7.0 | 0.00 | 0.00 | 0.00 | 42 | 1034.2 |
| 20260905163330 | 69 | 184 | 5.0 | 8.0 | 0.00 | 0.00 | 0.00 | 45 | 1034.1 |
| 20260905161823 | 68 | 162 | 6.0 | 9.0 | 0.00 | 0.00 | 0.00 | 47 | 1034.0 |
| 20260905160316 | 66 | 147 | 3.0 | 8.0 | 0.00 | 0.00 | 0.00 | 51 | 1033.6 |
| 20260905154851 | 64 | 191 | 4.0 | 7.0 | 0.00 | 0.00 | 0.00 | 54 | 1033.6 |
| 20260905153325 | 62 | 174 | 4.0 | 7.0 | 0.00 | 0.00 | 0.00 | 58 | 1033.6 |
| 20260905151818 | 61 | 180 | 4.0 | 6.0 | 0.00 | 0.00 | 0.00 | 60 | 1033.7 |
| 20260905150331 | 58 | 282 | 0.0 | 8.0 | 0.00 | 0.00 | 0.00 | 65 | 1033.7 |
| 20260905144825 | 55 | 10 | 0.0 | 0.0 | 0.00 | 0.00 | 0.00 | 77 | 1033.7 |
| 20260905143313 | 52 | 10 | 0.0 | 0.0 | 0.00 | 0.00 | 0.00 | 86 | 1033.5 |
| 20260905141826 | 50 | 10 | 0.0 | 0.0 | 0.00 | 0.00 | 0.00 | 89 | 1033.7 |
| 20260905140348 | 49 | 10 | 0.0 | 0.0 | 0.00 | 0.00 | 0.00 | 89 | 1033.5 |
| 20260905134813 | 48 | 10 | 0.0 | 0.0 | 0.00 | 0.00 | 0.00 | 87 | 1033.3 |
| 20260905133313 | 48 | 10 | 0.0 | 0.0 | 0.00 | 0.00 | 0.00 | 86 | 1033.1 |
| 20260905131826 | 48 | 10 | 0.0 | 0.0 | 0.00 | 0.00 | 0.00 | 86 | 1032.9 |
| 20260905130320 | 48 | 10 | 0.0 | 0.0 | 0.00 | 0.00 | 0.00 | 85 | 1032.8 |
| 20260905124815 | 48 | 10 | 0.0 | 0.0 | 0.00 | 0.00 | 0.00 | 85 | 1032.6 |
| 20260905123330 | 48 | 10 | 0.0 | 0.0 | 0.00 | 0.00 | 0.00 | 84 | 1032.1 |
| 20260905121823 | 49 | 10 | 0.0 | 0.0 | 0.00 | 0.00 | 0.00 | 83 | 1032.1 |
| 20260905120317 | 49 | 10 | 0.0 | 0.0 | 0.00 | 0.00 | 0.00 | 83 | 1032.2 |
| 20260905114811 | 49 | 10 | 0.0 | 0.0 | 0.00 | 0.00 | 0.00 | 82 | 1032.2 |
| 20260905113348 | 50 | 10 | 0.0 | 0.0 | 0.00 | 0.00 | 0.00 | 81 | 1032.2 |
| 20260905111820 | 50 | 10 | 0.0 | 0.0 | 0.00 | 0.00 | 0.00 | 79 | 1032.3 |
| 20260905110314 | 51 | 10 | 0.0 | 0.0 | 0.00 | 0.00 | 0.00 | 78 | 1032.1 |
| 20260905104829 | 51 | 10 | 0.0 | 0.0 | 0.00 | 0.00 | 0.00 | 78 | 1032.1 |
| 20260905103324 | 52 | 10 | 0.0 | 0.0 | 0.00 | 0.00 | 0.00 | 78 | 1032.1 |
| 20260905101837 | 52 | 10 | 0.0 | 4.0 | 0.00 | 0.00 | 0.00 | 78 | 1032.0 |
| 20260905100330 | 52 | 21 | 0.0 | 0.0 | 0.00 | 0.00 | 0.00 | 79 | 1031.7 |
| 20260905094817 | 52 | 21 | 0.0 | 0.0 | 0.00 | 0.00 | 0.00 | 79 | 1031.7 |
| 20260905093340 | 52 | 21 | 0.0 | 0.0 | 0.00 | 0.00 | 0.00 | 78 | 1031.7 |
| 20260905091832 | 52 | 21 | 0.0 | 0.0 | 0.00 | 0.00 | 0.00 | 78 | 1031.8 |
| 20260905090326 | 52 | 21 | 0.0 | 0.0 | 0.00 | 0.00 | 0.00 | 76 | 1031.8 |
| 20260905084820 | 52 | 21 | 0.0 | 0.0 | 0.00 | 0.00 | 0.00 | 75 | 1031.9 |
| 20260905083334 | 53 | 21 | 0.0 | 0.0 | 0.00 | 0.00 | 0.00 | 73 | 1031.9 |
| 20260905081820 | 53 | 21 | 0.0 | 0.0 | 0.00 | 0.00 | 0.00 | 71 | 1032.1 |
| 20260905080314 | 54 | 21 | 0.0 | 0.0 | 0.00 | 0.00 | 0.00 | 69 | 1032.2 |
| 20260905074829 | 56 | 21 | 0.0 | 0.0 | 0.00 | 0.00 | 0.00 | 67 | 1032.2 |
| 20260905073323 | 57 | 21 | 0.0 | 2.0 | 0.00 | 0.00 | 0.00 | 65 | 1032.2 |
| 20260905071821 | 57 | 21 | 2.0 | 6.0 | 0.00 | 0.00 | 0.00 | 64 | 1032.1 |
| 20260905070314 | 56 | 25 | 5.0 | 10.0 | 0.00 | 0.00 | 0.00 | 68 | 1032.2 |
| 20260905064849 | 55 | 208 | 0.0 | 0.0 | 0.00 | 0.00 | 0.00 | 70 | 1032.1 |
| 20260905063322 | 55 | 208 | 0.0 | 0.0 | 0.00 | 0.00 | 0.00 | 68 | 1032.0 |
| 20260905061815 | 56 | 208 | 0.0 | 0.0 | 0.00 | 0.00 | 0.00 | 68 | 1031.9 |
| 20260905060329 | 56 | 208 | 0.0 | 0.0 | 0.00 | 0.00 | 0.00 | 67 | 1032.1 |
| 20260905054823 | 57 | 208 | 0.0 | 0.0 | 0.00 | 0.00 | 0.00 | 66 | 1032.1 |
| 20260905053317 | 58 | 208 | 0.0 | 2.0 | 0.00 | 0.00 | 0.00 | 67 | 1032.3 |
| 20260905051830 | 58 | 208 | 1.0 | 8.0 | 0.00 | 0.00 | 0.00 | 67 | 1032.4 |
| 20260905050324 | 58 | 206 | 0.0 | 0.0 | 0.00 | 0.00 | 0.00 | 65 | 1032.6 |
| 20260905044840 | 59 | 206 | 0.0 | 0.0 | 0.00 | 0.00 | 0.00 | 63 | 1032.7 |
| 20260905043334 | 60 | 206 | 0.0 | 0.0 | 0.00 | 0.00 | 0.00 | 61 | 1032.8 |
| 20260905041827 | 61 | 206 | 0.0 | 0.0 | 0.00 | 0.00 | 0.00 | 59 | 1032.9 |
| 20260905040321 | 62 | 206 | 0.0 | 1.0 | 0.00 | 0.00 | 0.00 | 59 | 1032.9 |
| 20260905034815 | 62 | 206 | 0.0 | 2.0 | 0.00 | 0.00 | 0.00 | 57 | 1033.0 |
| 20260905033350 | 63 | 206 | 0.0 | 0.0 | 0.00 | 0.00 | 0.00 | 57 | 1032.9 |
| 20260905031822 | 64 | 206 | 0.0 | 0.0 | 0.00 | 0.00 | 0.00 | 54 | 1032.8 |
| 20260905030317 | 65 | 206 | 0.0 | 0.0 | 0.00 | 0.00 | 0.00 | 53 | 1032.7 |
| 20260905024811 | 66 | 206 | 0.0 | 0.0 | 0.00 | 0.00 | 0.00 | 51 | 1032.6 |
| 20260905023347 | 67 | 206 | 0.0 | 0.0 | 0.00 | 0.00 | 0.00 | 50 | 1032.4 |
| 20260905021839 | 68 | 206 | 0.0 | 0.0 | 0.00 | 0.00 | 0.00 | 47 | 1032.1 |